When you browse on this site, cookies collect data to enhance your experience and personalize the content and advertising you see.
Visit our Privacy Policy to learn more. By continuing to use the site, you agree to this use of cookies and data.
  • En España
  • Lista de países
  • Para 7 días
  • Temperatura del agua
  • El tiempo en el mapa
  • Informadores
  • user-avatar
    Iniciar sesión

    Tiempo cada hora Quito

    Hoy, 16 Diciembre, Lunes

    Tiempo Temperatura Precipitaciones Viento Presión Humedad
    00:00 +18°C° 0.1 mm 1 mps 622 mmHg 92%
    01:00 +18°C° 0.1 mm 1 mps 621 mmHg 92%
    02:00 +18°C° 0.3 mm 1 mps 621 mmHg 93%
    03:00 +18°C° 0.3 mm 1 mps 621 mmHg 94%
    04:00 +18°C° 0.3 mm 1 mps 621 mmHg 95%
    05:00 +18°C° 0.7 mm 1 mps 621 mmHg 94%
    06:00 +18°C° 0.7 mm 1 mps 622 mmHg 94%
    07:00 +18°C° 0.7 mm 1 mps 622 mmHg 94%
    08:00 +19°C° 0.2 mm 1 mps 622 mmHg 89%
    09:00 +20°C° 0.2 mm 1 mps 623 mmHg 85%
    10:00 +22°C° 0.2 mm 1 mps 623 mmHg 80%
    11:00 +23°C° 1.2 mm 1 mps 623 mmHg 78%
    12:00 +24°C° 1.2 mm 1 mps 622 mmHg 75%
    13:00 +25°C° 1.2 mm 1 mps 622 mmHg 73%
    14:00 +25°C° 1.2 mm 1 mps 621 mmHg 74%
    15:00 +24°C° 1.2 mm 1 mps 621 mmHg 76%
    16:00 +24°C° 1.2 mm 1 mps 621 mmHg 77%
    17:00 +23°C° 1.2 mm 1 mps 621 mmHg 82%
    18:00 +21°C° 1.2 mm 1 mps 621 mmHg 86%
    19:00 +20°C° 1.2 mm 1 mps 620 mmHg 90%
    20:00 +19°C° 0.8 mm 1 mps 621 mmHg 91%
    21:00 +19°C° 0.8 mm 1 mps 621 mmHg 92%
    22:00 +19°C° 0.8 mm 1 mps 622 mmHg 92%
    23:00 +18°C° 0.3 mm 1 mps 622 mmHg 94%

    Mañana, 17 Diciembre, Martes

    Tiempo Temperatura Precipitaciones Viento Presión Humedad
    00:00 +16°C° 0.3 mm 0 mps 621 mmHg 95%
    01:00 +15°C° 0.3 mm 0 mps 621 mmHg 96%
    02:00 +15°C° 0.4 mm 0 mps 621 mmHg 96%
    03:00 +16°C° 0.4 mm 1 mps 620 mmHg 96%
    04:00 +16°C° 0.4 mm 1 mps 620 mmHg 97%
    05:00 +18°C° 0.2 mm 1 mps 621 mmHg 96%
    06:00 +18°C° 0.2 mm 1 mps 622 mmHg 95%
    07:00 +19°C° 0.2 mm 1 mps 623 mmHg 94%
    08:00 +20°C° 0.9 mm 1 mps 623 mmHg 90%
    09:00 +22°C° 0.9 mm 1 mps 623 mmHg 86%
    10:00 +23°C° 0.9 mm 1 mps 623 mmHg 83%
    11:00 +23°C° 2.1 mm 1 mps 623 mmHg 82%
    12:00 +24°C° 2.1 mm 1 mps 622 mmHg 81%
    13:00 +24°C° 2.1 mm 1 mps 622 mmHg 80%
    14:00 +24°C° 1.6 mm 1 mps 621 mmHg 82%
    15:00 +24°C° 1.6 mm 1 mps 621 mmHg 84%
    16:00 +23°C° 1.6 mm 1 mps 620 mmHg 86%
    17:00 +22°C° 1.8 mm 1 mps 620 mmHg 88%
    18:00 +21°C° 1.8 mm 1 mps 621 mmHg 89%
    19:00 +20°C° 1.8 mm 1 mps 621 mmHg 91%
    20:00 +19°C° 0.7 mm 1 mps 621 mmHg 92%
    21:00 +19°C° 0.7 mm 1 mps 621 mmHg 92%
    22:00 +18°C° 0.7 mm 1 mps 621 mmHg 93%
    23:00 +18°C° 0.1 mm 1 mps 621 mmHg 93%

    Pasado mañana, 18 Diciembre, Miércoles

    Tiempo Temperatura Precipitaciones Viento Presión Humedad
    00:00 +18°C° 0.1 mm 1 mps 621 mmHg 93%
    01:00 +18°C° 0.1 mm 1 mps 621 mmHg 94%
    02:00 +18°C° 0 mm 1 mps 620 mmHg 94%
    03:00 +15°C° 0 mm 0 mps 620 mmHg 94%
    04:00 +15°C° 0 mm 0 mps 620 mmHg 94%
    05:00 +16°C° 0.1 mm 0 mps 621 mmHg 93%
    06:00 +17°C° 0.1 mm 0 mps 621 mmHg 92%
    07:00 +17°C° 0.1 mm 0 mps 622 mmHg 91%
    08:00 +21°C° 0.7 mm 1 mps 622 mmHg 86%
    09:00 +23°C° 0.7 mm 1 mps 623 mmHg 81%
    10:00 +24°C° 0.7 mm 1 mps 623 mmHg 76%
    11:00 +25°C° 0.9 mm 2 mps 622 mmHg 72%
    12:00 +26°C° 0.9 mm 2 mps 622 mmHg 69%
    13:00 +26°C° 0.9 mm 2 mps 622 mmHg 65%
    14:00 +26°C° 0.3 mm 2 mps 621 mmHg 66%
    15:00 +26°C° 0.3 mm 2 mps 621 mmHg 68%
    16:00 +26°C° 0.3 mm 2 mps 621 mmHg 69%
    17:00 +24°C° 3.4 mm 2 mps 621 mmHg 78%
    18:00 +21°C° 3.4 mm 2 mps 621 mmHg 86%
    19:00 +19°C° 3.4 mm 2 mps 620 mmHg 95%
    20:00 +19°C° 1.6 mm 1 mps 621 mmHg 95%
    21:00 +19°C° 1.6 mm 1 mps 621 mmHg 95%
    22:00 +19°C° 1.6 mm 1 mps 622 mmHg 95%
    23:00 +18°C° 1.3 mm 1 mps 621 mmHg 96%

    19 Diciembre, Jueves

    Tiempo Temperatura Precipitaciones Viento Presión Humedad
    00:00 +18°C° 1.3 mm 1 mps 621 mmHg 96%
    01:00 +18°C° 1.3 mm 1 mps 621 mmHg 96%
    02:00 +18°C° 0.5 mm 1 mps 620 mmHg 96%
    03:00 +16°C° 0.5 mm 1 mps 620 mmHg 96%
    04:00 +16°C° 0.5 mm 1 mps 620 mmHg 96%
    05:00 +18°C° 0 mm 1 mps 621 mmHg 94%
    06:00 +19°C° 0 mm 1 mps 621 mmHg 92%
    07:00 +17°C° 0 mm 0 mps 622 mmHg 91%
    08:00 +21°C° 0 mm 1 mps 623 mmHg 82%
    09:00 +23°C° 0 mm 2 mps 623 mmHg 74%
    10:00 +25°C° 0 mm 2 mps 624 mmHg 65%
    11:00 +26°C° 0.1 mm 3 mps 623 mmHg 62%
    12:00 +26°C° 0.1 mm 3 mps 623 mmHg 59%
    13:00 +27°C° 0.1 mm 3 mps 622 mmHg 56%
    14:00 +26°C° 0.2 mm 3 mps 622 mmHg 60%
    15:00 +26°C° 0.2 mm 2 mps 621 mmHg 65%
    16:00 +25°C° 0.2 mm 2 mps 621 mmHg 69%
    17:00 +23°C° 0.6 mm 2 mps 621 mmHg 75%
    18:00 +20°C° 0.6 mm 2 mps 620 mmHg 81%
    19:00 +19°C° 0.6 mm 1 mps 620 mmHg 88%
    20:00 +19°C° 0.1 mm 1 mps 621 mmHg 90%
    21:00 +18°C° 0.1 mm 1 mps 621 mmHg 91%
    22:00 +18°C° 0.1 mm 1 mps 622 mmHg 93%
    23:00 +16°C° 0.1 mm 1 mps 621 mmHg 94%

    20 Diciembre, Viernes

    Tiempo Temperatura Precipitaciones Viento Presión Humedad
    00:00 +16°C° 0.1 mm 1 mps 621 mmHg 95%
    01:00 +16°C° 0.1 mm 1 mps 621 mmHg 96%
    02:00 +16°C° 0 mm 2 mps 621 mmHg 96%
    03:00 +16°C° 0 mm 2 mps 621 mmHg 96%
    04:00 +16°C° 0 mm 2 mps 621 mmHg 97%
    05:00 +16°C° 0 mm 2 mps 621 mmHg 96%
    06:00 +17°C° 0 mm 2 mps 622 mmHg 96%
    07:00 +17°C° 0 mm 2 mps 622 mmHg 95%
    08:00 +19°C° 0.5 mm 2 mps 623 mmHg 90%
    09:00 +20°C° 0.5 mm 2 mps 623 mmHg 85%
    10:00 +23°C° 0.5 mm 1 mps 624 mmHg 80%
    11:00 +24°C° 1.3 mm 1 mps 623 mmHg 76%
    12:00 +24°C° 1.3 mm 1 mps 623 mmHg 72%
    13:00 +25°C° 1.3 mm 1 mps 623 mmHg 68%
    14:00 +25°C° 0.3 mm 1 mps 622 mmHg 69%
    15:00 +24°C° 0.3 mm 1 mps 622 mmHg 70%
    16:00 +24°C° 0.3 mm 1 mps 621 mmHg 71%
    17:00 +22°C° 0.1 mm 1 mps 621 mmHg 76%
    18:00 +20°C° 0.1 mm 1 mps 621 mmHg 81%
    19:00 +19°C° 0.1 mm 1 mps 621 mmHg 85%
    20:00 +18°C° 0 mm 1 mps 621 mmHg 86%
    21:00 +18°C° 0 mm 1 mps 621 mmHg 87%
    22:00 +16°C° 0 mm 1 mps 622 mmHg 88%
    23:00 +16°C° 0.2 mm 1 mps 621 mmHg 89%

    21 Diciembre, Sábado

    Tiempo Temperatura Precipitaciones Viento Presión Humedad
    00:00 +16°C° 0.2 mm 1 mps 621 mmHg 91%
    01:00 +15°C° 0.2 mm 1 mps 621 mmHg 92%
    02:00 +15°C° 0.3 mm 1 mps 621 mmHg 92%
    03:00 +15°C° 0.3 mm 1 mps 620 mmHg 92%
    04:00 +15°C° 0.3 mm 1 mps 620 mmHg 92%
    05:00 +16°C° 0 mm 1 mps 621 mmHg 91%
    06:00 +18°C° 0 mm 1 mps 622 mmHg 90%
    07:00 +19°C° 0 mm 1 mps 622 mmHg 90%
    08:00 +21°C° 0 mm 1 mps 623 mmHg 81%
    09:00 +23°C° 0 mm 1 mps 623 mmHg 72%
    10:00 +25°C° 0 mm 1 mps 624 mmHg 63%
    11:00 +25°C° 0.1 mm 2 mps 624 mmHg 61%
    12:00 +26°C° 0.1 mm 2 mps 623 mmHg 58%
    13:00 +26°C° 0.1 mm 2 mps 623 mmHg 55%
    14:00 +26°C° 0.2 mm 2 mps 622 mmHg 59%
    15:00 +25°C° 0.2 mm 2 mps 622 mmHg 62%
    16:00 +25°C° 0.2 mm 1 mps 621 mmHg 65%
    17:00 +23°C° 0.1 mm 1 mps 621 mmHg 71%
    18:00 +21°C° 0.1 mm 1 mps 621 mmHg 77%
    19:00 +18°C° 0.1 mm 0 mps 621 mmHg 83%
    20:00 +17°C° 0.4 mm 0 mps 621 mmHg 86%
    21:00 +18°C° 0.4 mm 1 mps 621 mmHg 89%
    22:00 +18°C° 0.4 mm 1 mps 622 mmHg 92%
    23:00 +15°C° 0.1 mm 0 mps 621 mmHg 92%
    Mostrar más